Погода в Любимовке

Россия / Республика Крым     45°37′58″N   34°55′24″E
темп.,
°C
ветер,
м/с
пор.,
м/с
влажн.,
%
обл.,
%
осадки,
мм/ч
давл.,
гПа
погр.,
м
15 мая, сб
сб1500:00+16зюз44791 0.0 101254
03:00+15з56764 0.0 1013121
06:00+15з33755 0.0 101499
09:00+16з127369 0.0 101565
12:00+17в336799 0.0 1015100
15:00+17в6773100 0.0 101498
18:00+17вюв4577100 0.0 101364
21:00+17вюв227916 0.0 101318
16 мая, вс
вс1600:00+17вюв227560 0.0 101311
03:00+17св3374100 0.0 101220
06:00+16св5882100 0.0 1011108
09:00+16св5681100 0.0 1011118
12:00+16ссв5680100 0.0 1010103
15:00+17св358096 0.0 100863
18:00+18св4683100 0.0 100667
21:00+19ссв5681100 0.1 100453
17 мая, пн
пн1700:00+17сз448834 0.0 100424
03:00+17ссв5793100 2.8 100270
06:00+17юз559589 1.6 100464
09:00+17зсз4690100 3.1 100588
12:00+19зюз5584100 0.1 100642
15:00+20з557783 0.2 100742
18:00+20з6969100 0.0 100776
21:00+17зюз710775 0.0 1010182
18 мая, вт
вт1800:00+16зюз610825 0.0 1010194
03:00+15юз57820 0.0 1010217
06:00+15юз46820 0.0 1011162
09:00+17ю4476100 0.0 101290
12:00+18юв568097 0.0 101268
15:00+19ююв578099 0.4 101181
18:00+19юз44795 2.8 101131
21:00+18зюз44815 2.9 101235
19 мая, ср
ср1900:00+17ю228439 0.0 101221
03:00+17вюв2286100 0.0 101223
06:00+17ююв4481100 0.0 101291
09:00+17ююв91282100 0.0 1012204
12:00+18юв101476100 0.0 1010261
15:00+18юв11167599 0.0 1009305
18:00+18юв101578100 0.0 1008232
21:00+17юв914835 0.0 1008208